[[{"header":{"parameterUnit":"m.s-1","parameterCategory":1,"la1":30.2991,"la2":30.254,"lo1":-89.0895,"lo2":-89.0444,"dy":0.0017,"dx":0.0017,"nx":28,"ny":28,"refTime":"2024-03-23T09:00:00:Z","depth":0,"parameterNumber":2,"parameterNumberName":"U-component_of_WINDS"},"data":[0,0,0,0,0,0,0,0,0,0,0,0,0,0,0,0,0,0,0,0,0,0,0,0,0,0,0,0,0,0,0,0,0,0,0,0,0,0,0,0,0,0,0,0,0,0,0,0,0,0,0,0,0,0,0,0,0,0,-5.509,-5.5091,0,-5.5172,-5.5173,-5.5174,-5.5134,-5.5132,-5.513,-5.5128,-5.521,-5.5214,-5.5219,0,0,0,0,0,0,0,0,0,0,0,0,0,-5.4898,-5.4902,-5.509,-5.5091,-5.5092,-5.5172,-5.5173,-5.5174,-5.5135,-5.5132,-5.513,-5.5127,-5.5209,-5.5214,-5.5219,0,0,0,0,0,0,0,0,0,0,0,0,0,-5.4981,-5.4903,-5.509,-5.5082,-5.5082,-5.5172,-5.5173,-5.5175,-5.5135,-5.5132,-5.5129,-5.5126,-5.5207,-5.5214,-5.522,-5.5321,0,0,-5.5239,-5.5241,0,0,0,0,0,0,0,0,-5.4977,-5.4988,-5.5082,-5.5083,-5.5083,-5.514,-5.5136,-5.5224,-5.5136,-5.5115,-5.5128,-5.5125,-5.5189,-5.5197,-5.5219,-5.5325,-5.5328,-5.5239,-5.5243,-5.5246,-5.5247,0,0,0,0,0,0,0,-5.4971,-5.4985,-5.5123,-5.5084,-5.5084,-5.5074,-5.5083,-5.5152,-5.5169,-5.5117,-5.5114,-5.5124,-5.5189,-5.5213,-5.5221,-5.533,-5.5239,-5.5245,-5.5248,-5.5251,-5.5522,-5.5526,0,0,0,0,0,0,-5.4966,-5.498,-5.512,-5.5125,-5.5021,-5.508,-5.509,-5.5125,-5.5168,-5.5172,-5.5127,-5.5122,-5.5204,-5.5214,-5.5224,-5.5344,-5.5246,-5.5251,-5.5255,-5.5519,-5.5523,-5.5527,0,0,0,0,0,0,-5.4962,-5.4978,-5.5117,-5.5052,-5.5069,-5.5087,-5.5127,-5.5128,-5.5152,-5.5176,-5.5178,-5.5149,-5.5202,-5.5215,-5.5297,-5.5346,-5.5254,-5.526,-5.5515,-5.552,-5.5525,-5.5586,0,0,0,0,0,0,-5.4956,-5.4977,-5.5016,-5.5053,-5.5072,-5.5189,-5.513,-5.5132,-5.5163,-5.5158,-5.5197,-5.52,-5.5201,-5.5288,-5.5303,-5.5353,-5.5265,-5.551,-5.5517,-5.5523,-5.558,-5.5593,-5.5604,0,0,0,0,0,-5.495,-5.503,-5.5018,-5.5035,-5.5121,-5.5192,-5.5203,-5.5202,-5.5167,-5.5206,-5.5222,-5.5199,-5.5339,-5.5297,-5.5314,-5.5366,-5.5507,-5.5515,-5.5523,-5.5575,-5.5591,-5.5604,0,0,0,0,0,0,-5.4997,-5.5034,-5.5022,-5.5117,-5.5152,-5.5185,-5.5234,-5.5219,-5.5264,-5.5257,-5.5254,-5.5263,-5.5348,-5.5366,-5.5318,-5.5467,-5.5418,-5.5429,-5.5451,-5.5467,-5.5479,-5.5471,-5.527,0,0,0,0,0,-5.5019,-5.5074,-5.5103,-5.5184,-5.5202,-5.5216,-5.5246,-5.5243,-5.5279,-5.5293,-5.5314,-5.535,-5.5402,-5.5436,-5.5485,-5.5584,-5.5591,-5.5628,-5.564,-5.565,-5.5659,-5.5712,-5.5728,-5.5553,-5.5553,-5.5553,0,0,-5.5063,-5.5091,-5.5125,-5.5194,-5.5221,-5.5277,-5.5228,-5.529,-5.5331,-5.5302,-5.5381,-5.5398,-5.5437,-5.5528,-5.5569,-5.5545,-5.571,-5.566,-5.5668,-5.5672,-5.5722,-5.5738,-5.5753,-5.5558,-5.5557,-5.5556,0,0,-5.5173,-5.52,-5.527,-5.5298,-5.5339,-5.5348,-5.5365,-5.5402,-5.5412,-5.5492,-5.5471,-5.5521,-5.561,-5.5639,-5.5665,-5.5788,-5.5769,-5.5805,-5.5867,-5.5918,-5.5932,-5.5944,-5.5986,-5.6002,-5.5814,-5.5815,-5.5815,0,-5.5223,-5.5307,-5.5307,-5.5371,-5.5401,-5.5379,-5.5449,-5.5477,-5.5532,-5.5553,-5.5527,-5.5639,-5.5664,-5.5761,-5.5791,-5.5814,-5.5832,-5.5798,-5.593,-5.5942,-5.5954,-5.5994,-5.601,-5.5818,-5.5818,-5.5818,-5.5817,0,-5.5366,-5.5425,-5.5476,-5.5531,-5.5568,-5.5634,-5.5644,-5.5681,-5.5675,-5.5687,-5.5768,-5.5798,-5.5852,-5.5876,-5.5871,-5.5972,-5.5956,-5.593,-5.588,-5.5974,-5.6012,-5.6027,-5.5824,-5.5823,-5.5821,-5.582,0,0,-5.5505,-5.556,-5.5578,-5.5603,-5.5648,-5.5693,-5.5759,-5.5813,-5.5845,-5.5885,-5.5939,-5.6016,-5.5993,-5.6023,-5.6021,-5.6067,-5.6161,-5.6035,-5.6036,-5.6055,-5.6273,-5.629,-5.6308,-5.6149,-5.6152,-5.6155,-5.6269,0,-5.5616,-5.5731,-5.5734,-5.5839,-5.5893,-5.5874,-5.5932,-5.5965,-5.5979,-5.6026,-5.6041,-5.6095,-5.6061,-5.6079,-5.6123,-5.614,-5.6204,-5.6132,-5.6198,-5.6201,-5.6186,-5.6327,-5.6346,-5.6451,-5.6284,-5.6286,-5.6288,0,-5.576,-5.5805,-5.5916,-5.5953,-5.5976,-5.6027,-5.6077,-5.6124,-5.6162,-5.6168,-5.6203,-5.6195,-5.6262,-5.6213,-5.6304,-5.6256,-5.6283,-5.6296,-5.63,-5.6304,-5.6248,-5.6332,-5.6485,-5.65,-5.6311,-5.6309,-5.6308,0,-5.5848,-5.5936,-5.6014,-5.6035,-5.6082,-5.6118,-5.6139,-5.6174,-5.6207,-5.6251,-5.6272,-5.6323,-5.6351,-5.6391,-5.6396,-5.6361,-5.6488,-5.644,-5.6494,-5.6494,-5.6519,-5.6517,-5.6676,-5.6542,-5.6542,-5.6541,-5.6541,0,-5.597,-5.6038,-5.6053,-5.6101,-5.6176,-5.618,-5.6254,-5.6272,-5.6304,-5.6354,-5.6343,-5.639,-5.6396,-5.6445,-5.6451,-5.6525,-5.6538,-5.6544,-5.6544,-5.6544,-5.6543,-5.656,-5.6551,-5.6546,-5.6545,-5.6544,-5.6543,0,-5.6079,-5.6092,-5.6175,-5.6213,-5.6224,-5.6278,-5.631,-5.6355,-5.6368,-5.6432,-5.6447,-5.6467,-5.6525,-5.6535,-5.6603,-5.6607,-5.6695,-5.6689,-5.6681,-5.668,-5.6732,-5.6726,-5.6906,-5.6929,-5.6782,-5.6784,-5.6785,0,-5.6155,-5.6206,-5.625,-5.6283,-5.6306,-5.636,-5.6393,-5.6399,-5.6434,-5.6482,-5.6521,-5.6578,-5.6622,-5.6715,-5.6735,-5.6787,-5.6781,-5.684,-5.6788,-5.6786,-5.6779,-5.6774,-5.6779,-5.6849,-5.685,-5.6852,-5.6853,0,-5.6287,-5.6291,-5.634,-5.6391,-5.6432,-5.6472,-5.6511,-5.6539,-5.655,-5.659,-5.6648,-5.6684,-5.6753,-5.6809,-5.6861,-5.6882,-5.6869,-5.687,-5.6884,-5.6883,-5.6875,-5.6878,-5.6706,-5.6864,-5.6863,-5.6862,-5.6862,-5.6861,-5.638,-5.6425,-5.6463,-5.6517,-5.6547,-5.6584,-5.6628,-5.6647,-5.6696,-5.6753,-5.6754,-5.6818,-5.6856,-5.6924,-5.6949,-5.6999,-5.698,-5.7002,-5.7007,-5.7012,-5.7015,-5.687,-5.7009,-5.7008,-5.7008,-5.7008,-5.7008,0,-5.651,-5.6533,-5.6584,-5.6638,-5.6681,-5.6668,-5.671,-5.6746,-5.6803,-5.6839,-5.6884,-5.6952,-5.7006,-5.7031,-5.7085,-5.712,-5.7115,-5.7133,-5.7129,-5.7134,-5.703,-5.7011,-5.7136,-5.7136,-5.7136,-5.7136,-5.7136,-5.7136,-5.6582,-5.6657,-5.6666,-5.6756,-5.6779,-5.6841,-5.6867,-5.69,-5.6929,-5.7005,-5.705,-5.7067,-5.7099,-5.7155,-5.7204,-5.721,-5.7229,-5.725,-5.7253,-5.7155,-5.7142,-5.7129,-5.7111,-5.7255,-5.7255,-5.7353,-5.7354,-5.7354]},{"header":{"parameterUnit":"m.s-1","parameterCategory":1,"la1":30.2991,"la2":30.254,"lo1":-89.0895,"lo2":-89.0444,"dy":0.0017,"dx":0.0017,"nx":28,"ny":28,"refTime":"2024-03-23T09:00:00:Z","depth":0,"parameterNumber":3,"parameterNumberName":"V-component_of_WINDS"},"data":[0,0,0,0,0,0,0,0,0,0,0,0,0,0,0,0,0,0,0,0,0,0,0,0,0,0,0,0,0,0,0,0,0,0,0,0,0,0,0,0,0,0,0,0,0,0,0,0,0,0,0,0,0,0,0,0,0,0,4.7488,4.7488,0,4.7475,4.7475,4.7475,4.7396,4.7395,4.7393,4.7391,4.7378,4.738,4.7381,0,0,0,0,0,0,0,0,0,0,0,0,0,4.7446,4.7447,4.7488,4.7488,4.7488,4.7475,4.7475,4.7475,4.7397,4.7394,4.7392,4.739,4.7378,4.738,4.7381,0,0,0,0,0,0,0,0,0,0,0,0,0,4.7452,4.7448,4.7488,4.7447,4.7443,4.7475,4.7475,4.7475,4.7397,4.7394,4.7392,4.7389,4.7377,4.738,4.7382,4.7452,0,0,4.7388,4.7389,0,0,0,0,0,0,0,0,4.7452,4.7454,4.7453,4.745,4.7446,4.7434,4.7456,4.7467,4.7398,4.7415,4.7391,4.7388,4.7399,4.74,4.7403,4.7451,4.7451,4.7388,4.739,4.7391,4.7391,0,0,0,0,0,0,0,4.7451,4.7454,4.7483,4.7453,4.7449,4.743,4.7428,4.7457,4.7423,4.7413,4.7407,4.7407,4.7397,4.7402,4.7403,4.7451,4.7388,4.739,4.7392,4.7392,4.7557,4.756,0,0,0,0,0,0,4.7457,4.7454,4.7483,4.7482,4.7442,4.7433,4.743,4.7441,4.7423,4.7417,4.7409,4.7403,4.7399,4.74,4.7402,4.7483,4.7391,4.7393,4.7394,4.7554,4.7557,4.7561,0,0,0,0,0,0,4.7456,4.746,4.7484,4.7467,4.7468,4.7437,4.7449,4.7442,4.7447,4.742,4.7413,4.742,4.7397,4.7399,4.744,4.7482,4.7394,4.7396,4.755,4.7555,4.7559,4.7647,0,0,0,0,0,0,4.7455,4.746,4.7486,4.7468,4.7469,4.7522,4.7452,4.7444,4.7451,4.7443,4.7429,4.7423,4.7395,4.7438,4.7442,4.7483,4.7397,4.7546,4.7552,4.7558,4.764,4.7654,4.7666,0,0,0,0,0,4.7454,4.7511,4.7488,4.7492,4.7501,4.7525,4.7526,4.7491,4.7454,4.748,4.7463,4.7424,4.7477,4.7442,4.7447,4.7489,4.7543,4.755,4.7557,4.7634,4.7651,4.7665,0,0,0,0,0,0,4.7535,4.7508,4.7482,4.7535,4.7533,4.7511,4.7543,4.751,4.7519,4.7511,4.7468,4.7466,4.7514,4.7506,4.7468,4.7557,4.7503,4.7512,4.756,4.7576,4.7589,4.759,4.7399,0,0,0,0,0,4.7559,4.758,4.7555,4.7605,4.7605,4.7575,4.7584,4.7558,4.7554,4.7553,4.7538,4.7536,4.7552,4.7564,4.7577,4.7639,4.7635,4.767,4.7683,4.7694,4.7701,4.7734,4.775,4.7583,4.7583,4.7583,0,0,4.7609,4.7597,4.7613,4.7621,4.7616,4.7639,4.7574,4.7601,4.7618,4.7557,4.7595,4.7585,4.758,4.7632,4.7654,4.7627,4.7747,4.7703,4.7711,4.7713,4.7743,4.7759,4.7773,4.7588,4.7587,4.7586,0,0,4.7711,4.7704,4.7745,4.7742,4.7736,4.7715,4.7726,4.771,4.77,4.7738,4.7693,4.7713,4.7741,4.774,4.7743,4.7847,4.7812,4.7853,4.792,4.7952,4.7965,4.7977,4.8014,4.8028,4.7861,4.7861,4.7861,0,4.7774,4.7807,4.777,4.78,4.7806,4.7752,4.7793,4.7792,4.779,4.7796,4.7765,4.78,4.7793,4.7845,4.787,4.7874,4.7885,4.7854,4.7966,4.7977,4.7988,4.8023,4.8037,4.7866,4.7865,4.7865,4.7864,0,4.7885,4.7909,4.7942,4.7943,4.7952,4.7988,4.7957,4.7971,4.7945,4.7928,4.7968,4.7957,4.7968,4.7978,4.7953,4.8027,4.801,4.7974,4.7919,4.8009,4.8042,4.8055,4.7873,4.7871,4.787,4.7869,0,0,4.8037,4.8017,4.803,4.803,4.802,4.8038,4.8072,4.8083,4.8096,4.8097,4.8125,4.8151,4.8118,4.8122,4.8096,4.8124,4.8209,4.8084,4.8084,4.8108,4.829,4.8317,4.8334,4.8185,4.8188,4.8189,4.829,0,4.8135,4.8192,4.816,4.8221,4.8243,4.8193,4.8222,4.822,4.8206,4.8223,4.8207,4.8226,4.818,4.8182,4.8208,4.8193,4.8244,4.8185,4.8211,4.8212,4.8213,4.835,4.8379,4.8475,4.8303,4.8305,4.8306,0,4.8257,4.8265,4.8328,4.8315,4.8323,4.835,4.8358,4.8375,4.8372,4.8359,4.8364,4.8332,4.8365,4.8312,4.8357,4.8317,4.8326,4.832,4.8323,4.8324,4.8265,4.8355,4.8504,4.8519,4.8326,4.8324,4.8323,0,4.8362,4.8388,4.8429,4.8431,4.8417,4.8437,4.8432,4.8426,4.8435,4.8442,4.8448,4.8459,4.8465,4.8474,4.8446,4.841,4.8496,4.844,4.8487,4.8488,4.8507,4.8506,4.866,4.8513,4.8513,4.8513,4.8512,0,4.8476,4.8516,4.8476,4.8502,4.8547,4.8511,4.8556,4.8546,4.8541,4.8564,4.8521,4.8544,4.8505,4.8525,4.8503,4.8544,4.8547,4.8538,4.8532,4.8542,4.8543,4.8547,4.854,4.8516,4.8515,4.8515,4.8514,0,4.86,4.8575,4.8617,4.86,4.8597,4.8631,4.8617,4.864,4.8624,4.8654,4.8658,4.8632,4.8653,4.8626,4.8643,4.8629,4.8686,4.8669,4.8687,4.8682,4.8731,4.8727,4.8892,4.8912,4.8753,4.8755,4.8756,0,4.8674,4.8704,4.8691,4.8704,4.8702,4.8722,4.8731,4.8697,4.8709,4.8708,4.8732,4.8749,4.876,4.8795,4.8778,4.8792,4.8775,4.8833,4.8777,4.8787,4.8776,4.8775,4.8778,4.8844,4.8846,4.8847,4.8849,0,4.8808,4.8794,4.8809,4.882,4.8832,4.8839,4.8842,4.8855,4.882,4.8835,4.8855,4.8864,4.8883,4.89,4.891,4.8905,4.8872,4.8866,4.8878,4.8888,4.8897,4.8893,4.8718,4.8862,4.8861,4.886,4.8859,4.8859,4.8909,4.8934,4.8929,4.8947,4.8947,4.8952,4.8973,4.8959,4.8976,4.8988,4.8967,4.8993,4.899,4.8999,4.8999,4.9019,4.8994,4.9011,4.9015,4.902,4.9028,4.8895,4.9021,4.902,4.902,4.9019,4.9019,0,4.9041,4.9036,4.9053,4.906,4.9074,4.9042,4.9044,4.9059,4.9082,4.9082,4.9095,4.9119,4.9136,4.9121,4.9135,4.9155,4.914,4.9159,4.9158,4.9157,4.9049,4.9037,4.9171,4.9171,4.9171,4.9171,4.9171,4.9171,4.9111,4.9152,4.9138,4.9179,4.9173,4.9199,4.9203,4.9208,4.9208,4.9236,4.925,4.9241,4.9235,4.9248,4.9263,4.9258,4.9265,4.9291,4.9281,4.918,4.9165,4.915,4.914,4.9293,4.9293,4.9387,4.9388,4.9389]}]]